Location: Bas Lanzent
(48.1360°N, 3.5871°W)
Time: 02:57:46
(UTC+00:00)

Meteor 1-31 Rocket - Pass Details

Date: 18 February 2020
Orbit: 522 x 546 km, 97.6° (Epoch: 03 April)

Event Time Altitude Azimuth Distance (km) Brightness Sun altitude
Rises 05:28:26 0° 7° (N) 2,666 6.5 -18.7°
Reaches altitude 10° 05:30:36 10° 1° (N) 1,774 5.5 -18.4°
Maximum altitude 05:34:15 45° 289° (WNW) 729 3.0 -17.8°
Enters shadow 05:34:45 42° 265° (W) 763 3.0 -17.7°
